Flag for Spain Weather past 2 weeks in Madrid, Spain

Now
82 °F

Passing clouds.


Feels Like: 80 °F
Forecast: 68 / 98 °F
Wind: 3 mph from Southwest

Location: Madrid / Cuatro Vientos

Current Time: Sep 1, 2014 at 10:29:02 PM

Latest Report: Sep 1, 2014 at 9:30 PM


Visibility: N/A

Pressure: 30.01 "Hg

Humidity: 20%

Dew point: 37 °F

Location of MadridLocation

Historic Weather in Madrid — Graph

°F

Madrid temperature yesterday

Maximum temperature yesterday: 95 °F (at 7:30 PM)
Minimum temperature yesterday: 72 °F (at 7:00 AM)
Average temperature yesterday: 85 °F

Past Weeks' High & Low Weather Summary

 TemperatureHumidityPressure
High99 °F (Sep 1, 5:30 PM)78% (Aug 19, 7:30 AM)30.15 "Hg (Aug 19, 7:30 AM)
Low61 °F (Aug 20, 7:30 AM)7% (Aug 28, 6:00 PM)29.83 "Hg (Aug 18, 7:00 PM)
Average83 °F29%30.03 "Hg
* Reported Aug 17 9:00 PM — Sep 1 9:30 PM, Madrid, Weather by CustomWeather, © 2014

Note: Actual official high and low records may vary slightly from our data, if they occured in-between our weather recording intervals... More about our weather records

Advertising

Madrid weather history for previous 24 hours

 ConditionsComfort  
Time TempWeatherWind HumidityBarometerVisibility
9:30 PM
Sep 1
82 °FPassing clouds.3 mph20%30.01 "HgN/A
9:00 PM88 °FPassing clouds.5 mph16%29.98 "HgN/A
8:30 PM90 °FPassing clouds.6 mph15%29.98 "HgN/A
8:00 PM93 °FPassing clouds.6 mph14%29.98 "HgN/A
7:30 PM95 °FPassing clouds.5 mph13%29.98 "HgN/A
7:00 PM95 °FPassing clouds.6 mph15%29.98 "HgN/A
6:30 PM97 °FPassing clouds.3 mph14%30.01 "HgN/A
6:00 PM95 °FPassing clouds.8 mph16%30.01 "HgN/A
5:30 PM99 °FPassing clouds.2 mph16%30.01 "HgN/A
5:00 PM95 °FPassing clouds.5 mph18%30.01 "HgN/A
4:30 PM95 °FPassing clouds.6 mph18%30.01 "HgN/A
4:00 PM95 °FPassing clouds.6 mph19%30.04 "HgN/A
3:30 PM95 °FPassing clouds.6 mph19%30.04 "HgN/A
3:00 PM95 °FPassing clouds.3 mph18%30.07 "HgN/A
2:30 PM95 °FPassing clouds.2 mph22%30.07 "HgN/A
2:00 PM93 °FPassing clouds.2 mph23%30.07 "HgN/A
1:30 PM91 °FSunny.2 mph28%30.07 "Hg10 mi
1:00 PM91 °FSunny.1 mph30%30.09 "Hg10 mi
12:30 PM88 °FSunny.1 mph33%30.09 "Hg10 mi
12:00 PM86 °FSunny.2 mph35%30.09 "Hg10 mi
11:30 AM86 °FSunny.1 mph35%30.09 "Hg10 mi
11:00 AM84 °FSunny.2 mph37%30.09 "Hg10 mi
10:30 AM81 °FSunny.1 mph42%30.09 "Hg10 mi
10:00 AM79 °FSunny.2 mph45%30.09 "Hg10 mi
9:30 AM77 °FSunny.1 mph44%30.09 "Hg10 mi
9:00 AM75 °FPassing clouds.3 mph50%30.09 "HgN/A
8:30 AM73 °FClear.2 mph53%30.09 "Hg10 mi
8:00 AM72 °FClear.1 mph57%30.07 "Hg10 mi
7:30 AM70 °FClear.1 mph60%30.07 "Hg10 mi
7:00 AM70 °FClear.1 mph60%30.07 "Hg10 mi
10:00 PM
Aug 31
84 °FPassing clouds.6 mph31%30.04 "HgN/A
Weather by CustomWeather, © 2014

See weather overviewHow to use our weather pages